Погода на Станции Луостари

Россия / Мурманская область     69°24′02″N   31°06′34″E
темп.,
°C
ветер,
м/с
пор.,
м/с
влажн.,
%
обл.,
%
осадки,
мм/ч
давл.,
гПа
погр.,
м
23 октября, сб
сб2300:00−2ссв6108198 0.4 999326
03:00−2с6107499 0.8 1001251
06:00−3ссз487899 0.2 1002164
09:00−5з328796 0.3 100423
12:00−3з498598 0.0 1006230
15:00−4з41088100 0.0 1007256
18:00−3з51183100 0.1 1008314
21:00−4з5109451 0.4 1008229
24 октября, вс
вс2400:00−6зюз339473 0.0 100932
03:00−5з3993100 0.0 1009145
06:00−4з5109256 0.0 1009203
09:00−4з611905 0.1 1011176
12:00−3зсз4118430 0.1 1012223
15:00−4з229283 0.4 101417
18:00−5з119689 1.2 101510
21:00−6ю119578 1.7 101610
25 октября, пн
пн2500:00−7зюз119376 0.1 101710
03:00−8ю11955 0.1 101710
06:00−9юв119758 0.0 101610
09:00−9вюв2199100 0.0 101510
12:00−7вюв2299100 0.0 101446
15:00−6в2197100 0.0 101319
18:00−7в2295100 0.0 101218
21:00−6в2290100 0.0 101141
26 октября, вт
вт2600:00−5всв2285100 0.0 101030
03:00−5всв2684100 0.0 1009143
06:00−5в41191100 0.0 1008309
09:00−4вюв81484100 0.3 1008544
12:00−3вюв81480100 0.1 1008648
15:00−3в81478100 0.1 1008538
18:00−5в61381100 0.0 1008260
21:00−4в61282100 0.0 1008246
27 октября, ср
ср2700:00−4в51095100 0.1 1009241
03:00−4св3598100 0.5 1009118
06:00−4св2386100 0.7 101027
09:00−6ссв337622 0.7 101224
12:00−4ссв337989 0.1 101334
15:00−5ссв338236 0.2 101519
18:00−4св368689 0.1 101771
21:00−5зсз118393 0.1 101810